Voltar ao catálogo

STARLINK-5595

AtivoComunicaçõesVLEO
NORAD 55765·PAYLOAD·🇺🇸 United States

Lançado Mar 3, 2023 de Vandenberg Space Force Base

Loading…

Próximas Passagens (próximas 24 horas)

TLE

AtualizadoSource: CelesTrak SupGP

Época: Sep 15, 2026, 02:11 UTC

1 55765C 23028AA  26258.09145833  .00005729  00000+0  48000-3 0  2584
2 55765  69.9996 107.0672 0002641 274.2124 305.6496 14.98334145    12

Acompanhe STARLINK-5595 em tempo real com AllMySat

Download on the App Store